This demonstration page uses our WeatherBlox Daily Observations layout. Learn more.

Left ArrowRight Arrow

Hourly Observations for June 20, 2021

Temp ( °F °C ) Dew Point ( °F °C ) Humidity (%) Winds ( mph kmh ) Pressure ( in mb ) Visibility ( mi km ) Precip ( " mm )
12:15 am 00:15 Cloudy with Rain 67 19.2 65 18.5 96 96 N N/A 29.63 1004 10 16 0.02 0.51
12:35 am 00:35 Cloudy with Rain 67 19.2 65 18.4 95 95 ESE 32 52 29.47 998 7 11 0.08 2.03
12:55 am 00:55 Partly Cloudy 68 19.9 64 17.9 88 88 S 14 22 29.56 1001 10 16 0.08 2.03
1:15 am 01:15 Partly Cloudy with Light Rain 68 20 64 18 88 88 S 10 17 29.59 1002 10 16 N/A
1:35 am 01:35 Mostly Cloudy 68 19.9 65 18.2 90 90 SSW 16 26 29.66 1004 10 16 N/A
1:55 am 01:55 Mostly Cloudy 67 19.3 65 18.2 93 93 WSW 5 7 29.64 1004 10 16 N/A
2:15 am 02:15 Partly Cloudy 66 19 65 18.1 95 95 N N/A 29.64 1004 10 16 N/A
2:35 am 02:35 Clear 65 18.5 64 17.7 95 95 NW 6 9 29.64 1004 10 16 N/A
2:55 am 02:55 Clear 65 18.5 64 17.7 95 95 NW 3 6 29.65 1004 10 16 N/A
3:15 am 03:15 Clear 65 18.3 64 17.5 95 95 NW 5 7 29.64 1004 10 16 N/A
3:35 am 03:35 Clear 65 18.2 64 17.5 96 96 WNW 3 6 29.63 1003 10 16 N/A
3:55 am 03:55 Clear 64 17.9 63 17 95 95 WSW 3 6 29.63 1003 10 16 N/A
4:15 am 04:15 Clear 65 18.2 63 17.3 95 95 S 5 7 29.60 1002 10 16 N/A
4:35 am 04:35 Clear 64 17.8 63 17 95 95 S 3 6 29.60 1002 10 16 N/A
4:55 am 04:55 Clear 63 17.1 62 16.5 96 96 N N/A 29.60 1002 10 16 N/A
5:15 am 05:15 Clear 63 17.1 62 16.6 97 97 NNW 3 6 29.59 1002 7 11 N/A
5:35 am 05:35 Clear 62 16.8 62 16.4 98 98 N N/A 29.61 1003 7 11 N/A
5:55 am 05:55 Clear 62 16.6 61 16.2 98 98 WNW 5 7 29.62 1003 7 11 N/A
6:15 am 06:15 Sunny with Mist and Fog 62 16.6 61 16.2 98 98 N N/A 29.62 1003 5 8 N/A
6:35 am 06:35 Sunny with Mist and Fog 63 17 62 16.6 98 98 N N/A 29.61 1003 4 6 N/A
6:55 am 06:55 Sunny with Mist and Fog 63 17 62 16.6 98 98 N N/A 29.61 1003 5 8 N/A
7:15 am 07:15 Sunny 64 17.7 63 17.3 98 98 N N/A 29.62 1003 7 11 N/A
7:35 am 07:35 Sunny 65 18.5 64 17.6 95 95 N N/A 29.61 1003 10 16 N/A
7:55 am 07:55 Sunny 67 19.2 64 17.7 91 91 N N/A 29.60 1003 10 16 N/A
8:15 am 08:15 Sunny 68 19.9 65 18.1 89 89 N N/A 29.61 1003 10 16 N/A
8:35 am 08:35 Sunny 69 20.6 65 18.1 86 86 WNW 3 6 29.60 1002 10 16 N/A
8:55 am 08:55 Sunny 70 21.3 65 18.3 83 83 N N/A 29.60 1002 10 16 N/A
9:15 am 09:15 Sunny 71 21.7 65 18.1 80 80 N N/A 29.58 1002 10 16 N/A
9:35 am 09:35 Sunny 72 22.2 66 18.7 81 81 ENE 6 9 29.59 1002 10 16 N/A
9:55 am 09:55 Sunny 73 22.6 66 18.9 80 80 ENE 7 11 29.59 1002 10 16 N/A
10:15 am 10:15 Sunny 73 23 66 18.9 78 78 NE 6 9 29.58 1002 10 16 N/A
10:35 am 10:35 Sunny 74 23.1 66 19.1 78 78 NNE 7 11 29.57 1001 10 16 N/A
10:55 am 10:55 Partly Cloudy 74 23.6 66 19 75 75 N 5 7 29.57 1001 10 16 N/A
11:15 am 11:15 Partly Cloudy 76 24.2 66 18.9 72 72 N 3 6 29.57 1001 10 16 N/A
11:35 am 11:35 Sunny 76 24.6 66 18.8 70 70 NNW 6 9 29.57 1001 10 16 N/A
11:55 am 11:55 Partly Cloudy 78 25.8 65 18.3 63 63 N 10 17 29.56 1001 10 16 N/A
12:15 pm 12:15 Partly Cloudy 79 26.2 64 18 61 61 N 9 15 29.57 1001 10 16 N/A
12:35 pm 12:35 Partly Cloudy 80 26.8 64 17.7 57 57 N 10 17 29.57 1001 10 16 N/A
12:55 pm 12:55 Partly Cloudy 81 27.2 62 16.7 53 53 N 15 24 29.57 1001 10 16 N/A
1:15 pm 13:15 Sunny 82 27.9 63 17.1 52 52 N 16 26 29.58 1002 10 16 N/A
1:35 pm 13:35 Sunny 82 28 62 16.4 49 49 N 20 31 29.57 1001 10 16 N/A
1:55 pm 13:55 Sunny 83 28.2 59 14.9 44 44 NNE 22 35 29.58 1002 10 16 N/A
2:15 pm 14:15 Sunny 84 28.7 58 14.7 42 42 NNE 18 30 29.58 1002 10 16 N/A
2:35 pm 14:35 Sunny 84 28.7 57 14 41 41 N 22 35 29.58 1002 10 16 N/A
2:55 pm 14:55 Sunny 84 29 57 13.9 40 40 N 20 31 29.59 1002 10 16 N/A
3:15 pm 15:15 Sunny 84 29 57 13.8 39 39 NNE 18 30 29.60 1002 10 16 N/A
3:35 pm 15:35 Sunny 84 29 55 12.5 36 36 N 21 33 29.61 1003 10 16 N/A
3:55 pm 15:55 Sunny 84 28.8 54 12.3 36 36 N 18 30 29.62 1003 10 16 N/A
4:15 pm 16:15 Sunny 83 28.6 53 11.9 36 36 N 16 26 29.63 1003 10 16 N/A
4:35 pm 16:35 Sunny 83 28.5 54 12 36 36 N 20 31 29.64 1004 10 16 N/A
4:55 pm 16:55 Sunny 83 28.1 52 11.3 35 35 N 17 28 29.64 1004 10 16 N/A
5:15 pm 17:15 Sunny 82 27.7 53 11.4 36 36 N 16 26 29.66 1004 10 16 N/A
5:35 pm 17:35 Sunny 82 27.5 53 11.7 37 37 N 18 30 29.67 1005 10 16 N/A
5:55 pm 17:55 Sunny 81 27 53 11.5 38 38 NNE 20 31 29.68 1005 10 16 N/A
6:15 pm 18:15 Sunny 80 26.4 54 12.3 42 42 N 20 31 29.69 1005 10 16 N/A
6:35 pm 18:35 Sunny 79 25.9 54 12.1 42 42 N 21 33 29.70 1006 10 16 N/A
6:55 pm 18:55 Sunny 78 25.4 53 11.6 42 42 N 18 30 29.71 1006 10 16 N/A
7:15 pm 19:15 Sunny 77 25 53 11.8 44 44 N 18 30 29.72 1006 10 16 N/A
7:35 pm 19:35 Sunny 76 24.3 53 11.8 46 46 N 16 26 29.73 1007 10 16 N/A
7:55 pm 19:55 Sunny 74 23.6 53 11.8 48 48 N 16 26 29.75 1007 10 16 N/A
8:15 pm 20:15 Sunny 73 23 53 11.7 49 49 N 16 26 29.77 1008 10 16 N/A
8:35 pm 20:35 Sunny 72 22.2 53 11.6 51 51 N 13 20 29.79 1009 10 16 N/A
8:55 pm 20:55 Sunny 71 21.5 53 11.9 54 54 N 12 19 29.81 1009 10 16 N/A
9:15 pm 21:15 Clear 71 21.6 52 11.2 52 52 N 10 17 29.81 1010 10 16 N/A
9:35 pm 21:35 Clear 70 21.3 52 11.1 52 52 N 9 15 29.83 1010 10 16 N/A
9:55 pm 21:55 Clear 70 21 52 11.1 53 53 N 12 19 29.83 1010 10 16 N/A
10:15 pm 22:15 Clear 69 20.7 53 11.4 55 55 N 9 15 29.84 1011 10 16 N/A
10:35 pm 22:35 Clear 68 20 53 11.8 59 59 N 8 13 29.86 1011 10 16 N/A
10:55 pm 22:55 Partly Cloudy 68 20.1 53 11.6 58 58 N 10 17 29.87 1011 10 16 N/A
11:15 pm 23:15 Mostly Cloudy 68 20 52 11.2 57 57 N 12 19 29.89 1012 10 16 N/A
11:35 pm 23:35 Mostly Cloudy 68 19.8 52 11 57 57 N 8 13 29.88 1012 10 16 N/A
11:55 pm 23:55 Partly Cloudy 66 19.1 52 11.3 61 61 N 8 13 29.89 1012 10 16 N/A

Powered by AerisWeather